| time (UTC) | temp F | wind direction | speed MPH | gust MPH | rain 1hr in | rain 24hr in | rain mn in | humidity % | barometer mb |
| 20260506095555 | 75 | 185 | 2.0 | 5.0 | 0.00 | 0.00 | 0.00 | 94 | 1009.2 |
| 20260506095055 | 75 | 168 | 1.0 | 2.0 | 0.00 | 0.00 | 0.00 | 94 | 1009.1 |
| 20260506094601 | 75 | 0 | 0.0 | 2.0 | 0.00 | 0.00 | 0.00 | 94 | 1009.3 |
| 20260506094055 | 75 | 166 | 1.0 | 2.0 | 0.00 | 0.00 | 0.00 | 94 | 1009.3 |
| 20260506093554 | 75 | 128 | 0.0 | 2.0 | 0.00 | 0.00 | 0.00 | 94 | 1009.4 |
| 20260506093055 | 75 | 0 | 0.0 | 4.0 | 0.00 | 0.00 | 0.00 | 94 | 1009.5 |
| 20260506092556 | 75 | 157 | 0.0 | 4.0 | 0.00 | 0.00 | 0.00 | 94 | 1009.3 |
| 20260506092056 | 75 | 178 | 1.0 | 3.0 | 0.00 | 0.00 | 0.00 | 94 | 1009.4 |
| 20260506091557 | 75 | 170 | 1.0 | 5.0 | 0.00 | 0.00 | 0.00 | 94 | 1009.5 |
| 20260506091055 | 75 | 143 | 1.0 | 5.0 | 0.00 | 0.00 | 0.00 | 94 | 1009.4 |
| 20260506090557 | 75 | 138 | 1.0 | 3.0 | 0.00 | 0.00 | 0.00 | 94 | 1009.5 |
| 20260506090053 | 75 | 0 | 1.0 | 3.0 | 0.00 | 0.00 | 0.00 | 94 | 1009.5 |
| 20260506085555 | 75 | 220 | 0.0 | 2.0 | 0.00 | 0.00 | 0.00 | 94 | 1009.5 |
| 20260506085055 | 75 | 190 | 0.0 | 3.0 | 0.00 | 0.00 | 0.00 | 94 | 1009.5 |
| 20260506084631 | 75 | 0 | 0.0 | 3.0 | 0.00 | 0.00 | 0.00 | 94 | 1009.5 |
| 20260506084055 | 75 | 124 | 0.0 | 3.0 | 0.00 | 0.00 | 0.00 | 94 | 1009.6 |
| 20260506083553 | 75 | 178 | 0.0 | 2.0 | 0.00 | 0.00 | 0.00 | 94 | 1009.6 |
| 20260506083054 | 75 | 0 | 0.0 | 3.0 | 0.00 | 0.00 | 0.00 | 93 | 1009.6 |
| 20260506082557 | 75 | 0 | 0.0 | 3.0 | 0.00 | 0.00 | 0.00 | 93 | 1009.6 |
| 20260506082055 | 75 | 0 | 0.0 | 2.0 | 0.00 | 0.00 | 0.00 | 93 | 1009.7 |
| 20260506081559 | 75 | 118 | 1.0 | 2.0 | 0.00 | 0.00 | 0.00 | 93 | 1009.6 |
| 20260506081056 | 75 | 0 | 1.0 | 2.0 | 0.00 | 0.00 | 0.00 | 93 | 1009.8 |
| 20260506080559 | 75 | 154 | 0.0 | 2.0 | 0.00 | 0.00 | 0.00 | 93 | 1009.8 |
| 20260506073057 | 75 | 157 | 1.0 | 4.0 | 0.00 | 0.00 | 0.00 | 93 | 1010.0 |
| 20260506072555 | 75 | 150 | 1.0 | 4.0 | 0.00 | 0.00 | 0.00 | 93 | 1010.1 |
| 20260506072055 | 75 | 111 | 1.0 | 4.0 | 0.00 | 0.00 | 0.00 | 93 | 1010.1 |
| 20260506071558 | 75 | 194 | 2.0 | 5.0 | 0.00 | 0.00 | 0.00 | 92 | 1010.0 |
| 20260506071055 | 75 | 125 | 1.0 | 5.0 | 0.00 | 0.00 | 0.00 | 92 | 1010.0 |
| 20260506070555 | 75 | 152 | 2.0 | 6.0 | 0.00 | 0.00 | 0.00 | 92 | 1010.1 |
| 20260506062055 | 75 | 162 | 2.0 | 6.0 | 0.00 | 0.00 | 0.00 | 92 | 1009.8 |
| 20260506061559 | 75 | 130 | 2.0 | 6.0 | 0.00 | 0.00 | 0.00 | 92 | 1009.8 |
| 20260506061055 | 75 | 179 | 1.0 | 4.0 | 0.00 | 0.00 | 0.00 | 92 | 1010.0 |
| 20260506060556 | 75 | 151 | 1.0 | 5.0 | 0.00 | 0.00 | 0.00 | 92 | 1010.2 |
| 20260506051054 | 75 | 259 | 2.0 | 7.0 | 0.00 | 0.00 | 0.00 | 91 | 1010.4 |
| 20260506050556 | 75 | 147 | 1.0 | 7.0 | 0.00 | 0.00 | 0.00 | 91 | 1010.3 |
| 20260506045055 | 75 | 105 | 1.0 | 6.0 | 0.00 | 0.00 | 0.00 | 91 | 1010.2 |
| 20260506044553 | 75 | 118 | 3.0 | 6.0 | 0.00 | 0.00 | 0.00 | 91 | 1010.2 |
| 20260506044056 | 75 | 119 | 2.0 | 10.0 | 0.00 | 0.00 | 0.00 | 91 | 1010.1 |
| 20260506043555 | 76 | 143 | 2.0 | 10.0 | 0.00 | 0.00 | 0.00 | 91 | 1010.1 |
| 20260506043054 | 75 | 113 | 3.0 | 9.0 | 0.00 | 0.00 | 0.00 | 92 | 1010.0 |
| 20260506042555 | 76 | 350 | 3.0 | 8.0 | 0.00 | 0.00 | 0.00 | 92 | 1010.0 |
| 20260506042058 | 75 | 164 | 2.0 | 8.0 | 0.00 | 0.00 | 0.00 | 91 | 1010.2 |
| 20260506041606 | 76 | 183 | 2.0 | 7.0 | 0.00 | 0.00 | 0.00 | 91 | 1010.2 |
| 20260506041054 | 76 | 168 | 3.0 | 7.0 | 0.00 | 0.00 | 0.00 | 91 | 1010.2 |
| 20260506040555 | 76 | 280 | 3.0 | 7.0 | 0.00 | 0.00 | 0.00 | 91 | 1010.3 |
| 20260506040053 | 76 | 143 | 3.0 | 9.0 | 0.00 | 0.00 | 0.00 | 91 | 1010.2 |
| 20260506035555 | 76 | 195 | 3.0 | 9.0 | 0.00 | 0.00 | 0.00 | 91 | 1010.1 |
| 20260506035055 | 76 | 238 | 3.0 | 7.0 | 0.00 | 0.00 | 0.00 | 91 | 1010.0 |
| 20260506034555 | 76 | 118 | 3.0 | 9.0 | 0.00 | 0.00 | 0.00 | 91 | 1010.1 |
| 20260506034057 | 76 | 105 | 2.0 | 9.0 | 0.00 | 0.00 | 0.00 | 91 | 1010.0 |
| 20260506033557 | 76 | 157 | 2.0 | 7.0 | 0.00 | 0.00 | 0.00 | 91 | 1010.0 |
| 20260506033053 | 76 | 169 | 2.0 | 8.0 | 0.00 | 0.00 | 0.00 | 91 | 1009.9 |
| 20260506032555 | 76 | 116 | 3.0 | 8.0 | 0.00 | 0.00 | 0.00 | 91 | 1009.9 |
| 20260506032055 | 76 | 89 | 2.0 | 6.0 | 0.00 | 0.00 | 0.00 | 92 | 1009.9 |
| 20260506031556 | 76 | 127 | 3.0 | 6.0 | 0.00 | 0.00 | 0.00 | 92 | 1009.8 |
| 20260506031054 | 76 | 125 | 2.0 | 10.0 | 0.00 | 0.00 | 0.00 | 92 | 1009.8 |
| 20260506030557 | 76 | 153 | 3.0 | 10.0 | 0.00 | 0.00 | 0.00 | 92 | 1009.7 |
| 20260506030054 | 76 | 125 | 3.0 | 8.0 | 0.00 | 0.00 | 0.00 | 92 | 1009.5 |
| 20260506025555 | 76 | 137 | 3.0 | 7.0 | 0.00 | 0.00 | 0.00 | 92 | 1009.6 |
| 20260506025058 | 76 | 90 | 2.0 | 5.0 | 0.00 | 0.00 | 0.00 | 92 | 1009.6 |
| 20260506024555 | 75 | 151 | 1.0 | 5.0 | 0.00 | 0.00 | 0.00 | 92 | 1009.5 |
| 20260506024055 | 75 | 132 | 1.0 | 6.0 | 0.00 | 0.00 | 0.00 | 92 | 1009.5 |
| 20260506023556 | 75 | 150 | 2.0 | 6.0 | 0.00 | 0.00 | 0.00 | 92 | 1009.3 |
| 20260506023105 | 75 | 147 | 2.0 | 6.0 | 0.00 | 0.00 | 0.00 | 92 | 1009.2 |
| 20260506022555 | 75 | 120 | 2.0 | 6.0 | 0.00 | 0.00 | 0.00 | 92 | 1009.2 |
| 20260506022055 | 76 | 133 | 2.0 | 6.0 | 0.00 | 0.00 | 0.00 | 92 | 1009.3 |
| 20260506021612 | 76 | 143 | 2.0 | 6.0 | 0.00 | 0.00 | 0.00 | 91 | 1009.1 |
| 20260506021054 | 76 | 128 | 2.0 | 6.0 | 0.00 | 0.00 | 0.00 | 91 | 1009.0 |
| 20260506020555 | 76 | 120 | 3.0 | 6.0 | 0.00 | 0.00 | 0.00 | 91 | 1009.0 |
| 20260506020055 | 76 | 100 | 3.0 | 9.0 | 0.00 | 0.00 | 0.00 | 91 | 1009.0 |
| 20260506015555 | 76 | 124 | 2.0 | 9.0 | 0.00 | 0.00 | 0.00 | 91 | 1008.9 |
| 20260506015057 | 76 | 107 | 3.0 | 9.0 | 0.00 | 0.00 | 0.00 | 90 | 1009.0 |
| 20260506014554 | 76 | 153 | 3.0 | 7.0 | 0.00 | 0.00 | 0.00 | 90 | 1009.1 |
| 20260506014059 | 76 | 128 | 3.0 | 7.0 | 0.00 | 0.00 | 0.00 | 90 | 1009.1 |
| 20260506013555 | 76 | 119 | 2.0 | 7.0 | 0.00 | 0.00 | 0.00 | 90 | 1009.0 |
| 20260506013107 | 76 | 162 | 3.0 | 8.0 | 0.00 | 0.00 | 0.00 | 90 | 1008.8 |
| 20260506012555 | 76 | 180 | 3.0 | 8.0 | 0.00 | 0.00 | 0.00 | 90 | 1008.8 |
| 20260506012054 | 76 | 126 | 3.0 | 7.0 | 0.00 | 0.00 | 0.00 | 90 | 1008.8 |
| 20260506011615 | 76 | 124 | 3.0 | 7.0 | 0.00 | 0.00 | 0.00 | 90 | 1008.7 |
| 20260506011055 | 76 | 123 | 4.0 | 8.0 | 0.00 | 0.00 | 0.00 | 90 | 1008.6 |
| 20260506010555 | 76 | 88 | 3.0 | 10.0 | 0.00 | 0.00 | 0.00 | 89 | 1008.5 |
| 20260506010058 | 77 | 168 | 4.0 | 10.0 | 0.00 | 0.00 | 0.00 | 89 | 1008.5 |
| 20260506005558 | 77 | 161 | 3.0 | 10.0 | 0.00 | 0.00 | 0.00 | 89 | 1008.4 |
| 20260506005054 | 77 | 150 | 4.0 | 10.0 | 0.00 | 0.00 | 0.00 | 89 | 1008.4 |
| 20260506004555 | 77 | 190 | 4.0 | 10.0 | 0.00 | 0.00 | 0.00 | 89 | 1008.4 |
| 20260506004054 | 77 | 116 | 4.0 | 10.0 | 0.00 | 0.00 | 0.00 | 89 | 1008.5 |
| 20260506003555 | 77 | 285 | 5.0 | 10.0 | 0.00 | 0.00 | 0.00 | 89 | 1008.3 |
| 20260506003057 | 77 | 167 | 2.0 | 10.0 | 0.00 | 0.00 | 0.00 | 88 | 1008.2 |
| 20260506002555 | 77 | 131 | 2.0 | 10.0 | 0.00 | 0.00 | 0.00 | 88 | 1008.2 |
| 20260506002055 | 77 | 140 | 4.0 | 10.0 | 0.00 | 0.00 | 0.00 | 88 | 1008.2 |
| 20260506001556 | 77 | 194 | 5.0 | 10.0 | 0.00 | 0.00 | 0.00 | 88 | 1008.3 |
| 20260506001055 | 77 | 172 | 3.0 | 10.0 | 0.00 | 0.00 | 0.00 | 87 | 1008.4 |
| 20260506000555 | 77 | 108 | 4.0 | 10.0 | 0.00 | 0.00 | 0.00 | 87 | 1008.4 |
| 20260506000054 | 77 | 110 | 3.0 | 7.0 | 0.00 | 0.00 | 0.00 | 87 | 1008.2 |
| 20260505235554 | 77 | 225 | 3.0 | 7.0 | 0.00 | 0.00 | 0.00 | 87 | 1008.5 |
| 20260505235056 | 77 | 117 | 4.0 | 9.0 | 0.00 | 0.00 | 0.00 | 87 | 1008.5 |
| 20260505234556 | 77 | 165 | 3.0 | 9.0 | 0.00 | 0.00 | 0.00 | 87 | 1008.6 |
| 20260505234054 | 78 | 171 | 4.0 | 9.0 | 0.00 | 0.00 | 0.00 | 87 | 1008.4 |
| 20260505233555 | 78 | 192 | 3.0 | 9.0 | 0.00 | 0.00 | 0.00 | 87 | 1008.4 |
| 20260505233105 | 78 | 181 | 3.0 | 12.0 | 0.00 | 0.00 | 0.00 | 86 | 1008.3 |
| 20260505232555 | 78 | 207 | 4.0 | 12.0 | 0.00 | 0.00 | 0.00 | 86 | 1008.4 |
| 20260505232056 | 78 | 112 | 4.0 | 12.0 | 0.00 | 0.00 | 0.00 | 86 | 1008.6 |
| 20260505231612 | 78 | 174 | 3.0 | 9.0 | 0.00 | 0.00 | 0.00 | 86 | 1008.7 |
| 20260505231056 | 78 | 228 | 3.0 | 9.0 | 0.00 | 0.00 | 0.00 | 85 | 1008.6 |
| 20260505230555 | 78 | 111 | 3.0 | 9.0 | 0.00 | 0.00 | 0.00 | 86 | 1008.5 |
| 20260505225555 | 78 | 189 | 3.0 | 10.0 | 0.00 | 0.00 | 0.00 | 86 | 1008.5 |
| 20260505225055 | 78 | 250 | 3.0 | 10.0 | 0.00 | 0.00 | 0.00 | 86 | 1008.7 |
| 20260505224604 | 78 | 139 | 3.0 | 10.0 | 0.00 | 0.00 | 0.00 | 86 | 1008.6 |
| 20260505224054 | 78 | 114 | 3.0 | 10.0 | 0.00 | 0.00 | 0.00 | 85 | 1008.5 |
| 20260505223554 | 78 | 80 | 4.0 | 10.0 | 0.00 | 0.00 | 0.00 | 85 | 1008.5 |
| 20260505223058 | 79 | 152 | 2.0 | 10.0 | 0.00 | 0.00 | 0.00 | 84 | 1008.6 |
| 20260505222557 | 79 | 220 | 3.0 | 11.0 | 0.00 | 0.00 | 0.00 | 84 | 1008.8 |
| 20260505222056 | 79 | 198 | 4.0 | 11.0 | 0.00 | 0.00 | 0.00 | 84 | 1008.7 |
| 20260505221603 | 79 | 199 | 4.0 | 9.0 | 0.00 | 0.00 | 0.00 | 84 | 1008.9 |
| 20260505221055 | 79 | 81 | 4.0 | 10.0 | 0.00 | 0.00 | 0.00 | 84 | 1008.7 |
| 20260505220555 | 79 | 142 | 3.0 | 12.0 | 0.00 | 0.00 | 0.00 | 83 | 1008.6 |
| 20260505215554 | 79 | 185 | 4.0 | 10.0 | 0.00 | 0.00 | 0.00 | 83 | 1008.6 |
| 20260505215055 | 79 | 187 | 3.0 | 10.0 | 0.00 | 0.00 | 0.00 | 82 | 1008.6 |
| 20260505214558 | 80 | 167 | 4.0 | 11.0 | 0.00 | 0.00 | 0.00 | 80 | 1008.6 |
| 20260505214058 | 80 | 164 | 4.0 | 11.0 | 0.00 | 0.00 | 0.00 | 81 | 1008.7 |
| 20260505213554 | 80 | 187 | 3.0 | 9.0 | 0.00 | 0.00 | 0.00 | 80 | 1008.7 |
| 20260505213056 | 80 | 273 | 4.0 | 12.0 | 0.00 | 0.00 | 0.00 | 80 | 1008.9 |
| 20260505212554 | 80 | 107 | 3.0 | 12.0 | 0.00 | 0.00 | 0.00 | 81 | 1009.0 |
| 20260505212054 | 80 | 235 | 5.0 | 10.0 | 0.00 | 0.00 | 0.00 | 80 | 1008.8 |
| 20260505211553 | 80 | 178 | 4.0 | 12.0 | 0.00 | 0.00 | 0.00 | 80 | 1009.0 |
| 20260505211054 | 81 | 89 | 5.0 | 12.0 | 0.00 | 0.00 | 0.00 | 80 | 1008.8 |
| 20260505210554 | 81 | 195 | 2.0 | 9.0 | 0.00 | 0.00 | 0.00 | 80 | 1008.9 |
| 20260505210055 | 81 | 180 | 3.0 | 10.0 | 0.00 | 0.00 | 0.00 | 80 | 1009.0 |
| 20260505205555 | 81 | 145 | 4.0 | 10.0 | 0.00 | 0.00 | 0.00 | 80 | 1009.0 |
| 20260505205055 | 81 | 124 | 3.0 | 12.0 | 0.00 | 0.00 | 0.00 | 80 | 1009.1 |
| 20260505204553 | 81 | 138 | 4.0 | 12.0 | 0.00 | 0.00 | 0.00 | 80 | 1009.0 |
| 20260505204054 | 81 | 255 | 4.0 | 11.0 | 0.00 | 0.00 | 0.00 | 80 | 1009.2 |
| 20260505203554 | 81 | 119 | 4.0 | 11.0 | 0.00 | 0.00 | 0.00 | 80 | 1009.3 |
| 20260505203117 | 81 | 166 | 2.0 | 15.0 | 0.00 | 0.00 | 0.00 | 80 | 1009.6 |
| 20260505202557 | 81 | 209 | 5.0 | 15.0 | 0.00 | 0.00 | 0.00 | 80 | 1009.4 |
| 20260505202056 | 81 | 168 | 3.0 | 15.0 | 0.00 | 0.00 | 0.00 | 80 | 1009.4 |
| 20260505201601 | 81 | 183 | 5.0 | 12.0 | 0.00 | 0.00 | 0.00 | 80 | 1009.5 |
| 20260505201054 | 80 | 147 | 3.0 | 13.0 | 0.00 | 0.00 | 0.00 | 82 | 1009.5 |
| 20260505200554 | 80 | 241 | 4.0 | 13.0 | 0.00 | 0.00 | 0.00 | 81 | 1009.5 |
| 20260505200057 | 80 | 211 | 3.0 | 11.0 | 0.00 | 0.00 | 0.00 | 81 | 1009.6 |
| 20260505195555 | 80 | 126 | 4.0 | 10.0 | 0.00 | 0.00 | 0.00 | 81 | 1009.6 |
| 20260505195053 | 80 | 159 | 3.0 | 11.0 | 0.00 | 0.00 | 0.00 | 80 | 1009.7 |
| 20260505194553 | 80 | 149 | 4.0 | 11.0 | 0.00 | 0.00 | 0.00 | 80 | 1009.7 |
| 20260505194054 | 80 | 241 | 3.0 | 9.0 | 0.00 | 0.00 | 0.00 | 81 | 1009.9 |
| 20260505193554 | 79 | 140 | 3.0 | 11.0 | 0.00 | 0.00 | 0.00 | 81 | 1010.0 |
| 20260505193053 | 79 | 146 | 4.0 | 12.0 | 0.00 | 0.00 | 0.00 | 81 | 1010.1 |
| 20260505192557 | 80 | 232 | 3.0 | 12.0 | 0.00 | 0.00 | 0.00 | 81 | 1010.0 |
| 20260505192054 | 80 | 130 | 4.0 | 12.0 | 0.00 | 0.00 | 0.00 | 80 | 1010.0 |
| 20260505191611 | 80 | 192 | 4.0 | 11.0 | 0.00 | 0.00 | 0.00 | 80 | 1010.1 |
| 20260505191055 | 80 | 198 | 2.0 | 9.0 | 0.00 | 0.00 | 0.00 | 80 | 1010.2 |
| 20260505190554 | 80 | 263 | 2.0 | 9.0 | 0.00 | 0.00 | 0.00 | 80 | 1010.2 |
| 20260505190057 | 80 | 162 | 5.0 | 9.0 | 0.00 | 0.00 | 0.00 | 81 | 1010.2 |
| 20260505185554 | 80 | 235 | 3.0 | 9.0 | 0.00 | 0.00 | 0.00 | 79 | 1010.2 |
| 20260505185055 | 80 | 254 | 4.0 | 9.0 | 0.00 | 0.00 | 0.00 | 79 | 1010.2 |
| 20260505184555 | 80 | 126 | 3.0 | 9.0 | 0.00 | 0.00 | 0.00 | 79 | 1010.2 |
| 20260505184055 | 80 | 114 | 3.0 | 12.0 | 0.00 | 0.00 | 0.00 | 79 | 1010.3 |
| 20260505183555 | 80 | 155 | 5.0 | 12.0 | 0.00 | 0.00 | 0.00 | 80 | 1010.2 |
| 20260505183053 | 80 | 166 | 4.0 | 13.0 | 0.00 | 0.00 | 0.00 | 80 | 1010.2 |
| 20260505182554 | 79 | 208 | 5.0 | 13.0 | 0.00 | 0.00 | 0.00 | 81 | 1010.2 |
| 20260505182054 | 79 | 161 | 4.0 | 13.0 | 0.00 | 0.00 | 0.00 | 80 | 1010.3 |
| 20260505181553 | 79 | 202 | 3.0 | 9.0 | 0.00 | 0.00 | 0.00 | 80 | 1010.2 |
| 20260505181055 | 79 | 173 | 3.0 | 8.0 | 0.00 | 0.00 | 0.00 | 81 | 1010.2 |
| 20260505180554 | 79 | 154 | 4.0 | 12.0 | 0.00 | 0.00 | 0.00 | 81 | 1010.3 |
| 20260505175555 | 79 | 107 | 4.0 | 12.0 | 0.00 | 0.00 | 0.00 | 80 | 1010.3 |
| 20260505175054 | 80 | 187 | 4.0 | 12.0 | 0.00 | 0.00 | 0.00 | 79 | 1010.5 |
| 20260505174555 | 80 | 110 | 4.0 | 10.0 | 0.00 | 0.00 | 0.00 | 78 | 1010.4 |
| 20260505174054 | 80 | 202 | 4.0 | 10.0 | 0.00 | 0.00 | 0.00 | 78 | 1010.3 |
| 20260505173554 | 81 | 197 | 4.0 | 11.0 | 0.00 | 0.00 | 0.00 | 77 | 1010.4 |
| 20260505173057 | 81 | 183 | 3.0 | 11.0 | 0.00 | 0.00 | 0.00 | 78 | 1010.6 |
| 20260505172553 | 80 | 126 | 4.0 | 11.0 | 0.00 | 0.00 | 0.00 | 79 | 1010.6 |
| 20260505172053 | 80 | 204 | 3.0 | 9.0 | 0.00 | 0.00 | 0.00 | 79 | 1010.7 |
| 20260505171555 | 80 | 140 | 4.0 | 12.0 | 0.00 | 0.00 | 0.00 | 79 | 1010.8 |
| 20260505171055 | 80 | 151 | 4.0 | 12.0 | 0.00 | 0.00 | 0.00 | 80 | 1010.9 |
| 20260505170554 | 79 | 153 | 5.0 | 12.0 | 0.00 | 0.00 | 0.00 | 80 | 1011.0 |
| 20260505170108 | 80 | 236 | 4.0 | 10.0 | 0.00 | 0.00 | 0.00 | 80 | 1010.8 |
| 20260505165554 | 80 | 161 | 3.0 | 9.0 | 0.00 | 0.00 | 0.00 | 79 | 1010.9 |
| 20260505165057 | 80 | 320 | 3.0 | 9.0 | 0.00 | 0.00 | 0.00 | 79 | 1010.8 |
| 20260505164556 | 80 | 158 | 2.0 | 7.0 | 0.00 | 0.00 | 0.00 | 79 | 1010.8 |
| 20260505164054 | 80 | 238 | 3.0 | 11.0 | 0.00 | 0.00 | 0.00 | 80 | 1010.7 |
| 20260505163553 | 79 | 123 | 3.0 | 11.0 | 0.00 | 0.00 | 0.00 | 82 | 1010.8 |
| 20260505163103 | 78 | 150 | 6.0 | 11.0 | 0.00 | 0.00 | 0.00 | 81 | 1010.8 |
| 20260505162554 | 78 | 116 | 2.0 | 10.0 | 0.00 | 0.00 | 0.00 | 81 | 1010.7 |
| 20260505162057 | 78 | 185 | 3.0 | 11.0 | 0.00 | 0.00 | 0.00 | 81 | 1010.7 |
| 20260505161615 | 78 | 178 | 3.0 | 11.0 | 0.00 | 0.00 | 0.00 | 81 | 1010.7 |
| 20260505161054 | 79 | 188 | 4.0 | 11.0 | 0.00 | 0.00 | 0.00 | 79 | 1010.7 |
| 20260505160555 | 79 | 178 | 3.0 | 10.0 | 0.00 | 0.00 | 0.00 | 80 | 1010.6 |
| 20260505153104 | 79 | 195 | 3.0 | 11.0 | 0.00 | 0.00 | 0.00 | 79 | 1010.3 |
| 20260505152556 | 79 | 102 | 4.0 | 11.0 | 0.00 | 0.00 | 0.00 | 79 | 1010.2 |
| 20260505152054 | 79 | 150 | 3.0 | 11.0 | 0.00 | 0.00 | 0.00 | 79 | 1010.0 |
| 20260505151604 | 79 | 242 | 4.0 | 11.0 | 0.00 | 0.00 | 0.00 | 80 | 1010.1 |
| 20260505151057 | 79 | 239 | 4.0 | 11.0 | 0.00 | 0.00 | 0.00 | 79 | 1010.2 |
| 20260505150554 | 79 | 165 | 4.0 | 11.0 | 0.00 | 0.00 | 0.00 | 79 | 1010.1 |
| 20260505140555 | 76 | 254 | 3.0 | 9.0 | 0.00 | 0.00 | 0.00 | 84 | 1010.4 |
| 20260505124554 | 74 | 202 | 2.0 | 7.0 | 0.00 | 0.00 | 0.00 | 87 | 1010.0 |
| 20260505124055 | 74 | 168 | 2.0 | 8.0 | 0.00 | 0.00 | 0.00 | 87 | 1009.8 |
| 20260505123554 | 74 | 106 | 1.0 | 8.0 | 0.00 | 0.00 | 0.00 | 87 | 1009.7 |
| 20260505123054 | 74 | 154 | 2.0 | 8.0 | 0.00 | 0.00 | 0.00 | 88 | 1010.2 |
| 20260505122556 | 73 | 0 | 1.0 | 5.0 | 0.00 | 0.00 | 0.00 | 88 | 1010.2 |
| 20260505122054 | 73 | 130 | 1.0 | 5.0 | 0.00 | 0.00 | 0.00 | 88 | 1010.1 |
| 20260505121612 | 73 | 149 | 2.0 | 5.0 | 0.00 | 0.00 | 0.00 | 88 | 1010.0 |
| 20260505121055 | 73 | 219 | 2.0 | 6.0 | 0.00 | 0.00 | 0.00 | 88 | 1009.9 |
| 20260505120556 | 73 | 170 | 2.0 | 6.0 | 0.00 | 0.00 | 0.00 | 87 | 1009.7 |
| 20260505120055 | 73 | 121 | 2.0 | 6.0 | 0.00 | 0.00 | 0.00 | 87 | 1009.9 |
| 20260505115557 | 73 | 173 | 3.0 | 7.0 | 0.00 | 0.00 | 0.00 | 87 | 1009.8 |
| 20260505115058 | 73 | 157 | 2.0 | 7.0 | 0.00 | 0.00 | 0.00 | 87 | 1009.8 |
| 20260505114553 | 73 | 179 | 2.0 | 8.0 | 0.00 | 0.00 | 0.00 | 87 | 1009.6 |
| 20260505114055 | 73 | 143 | 2.0 | 8.0 | 0.00 | 0.00 | 0.00 | 87 | 1009.7 |
| 20260505113554 | 73 | 160 | 3.0 | 7.0 | 0.00 | 0.00 | 0.00 | 87 | 1009.7 |
| 20260505113053 | 73 | 131 | 2.0 | 7.0 | 0.00 | 0.00 | 0.00 | 87 | 1009.7 |
| 20260505112555 | 73 | 119 | 2.0 | 6.0 | 0.00 | 0.00 | 0.00 | 87 | 1009.7 |
| 20260505112055 | 72 | 136 | 2.0 | 6.0 | 0.00 | 0.00 | 0.00 | 87 | 1009.6 |
| 20260505111553 | 72 | 155 | 2.0 | 6.0 | 0.00 | 0.00 | 0.00 | 87 | 1009.7 |
| 20260505111055 | 72 | 163 | 1.0 | 4.0 | 0.00 | 0.00 | 0.00 | 87 | 1009.6 |
| 20260505110557 | 72 | 79 | 1.0 | 5.0 | 0.00 | 0.00 | 0.00 | 87 | 1009.6 |
| 20260505102056 | 72 | 124 | 1.0 | 4.0 | 0.00 | 0.00 | 0.00 | 87 | 1009.5 |
| 20260505101557 | 72 | 91 | 1.0 | 4.0 | 0.00 | 0.00 | 0.00 | 87 | 1009.6 |
| 20260505101056 | 72 | 136 | 0.0 | 4.0 | 0.00 | 0.00 | 0.00 | 86 | 1009.7 |
| 20260505100556 | 73 | 140 | 1.0 | 4.0 | 0.00 | 0.00 | 0.00 | 86 | 1009.8 |
| 20260505100059 | 73 | 168 | 1.0 | 5.0 | 0.00 | 0.00 | 0.00 | 86 | 1009.7 |